IZ2NAI-3 Weather Reports


Display with metric or nautical units.
time (UTC)temp
F
wind
direction
speed
MPH
gust
MPH
rain 1hr
in
rain 24hr
in
rain mn
in
humidity
%
barometer
mb
20260507044506 51 0 0.0 0.0 0.00 0.13 0.01 95 1011.9
20260507044005 51 0 0.0 0.0 0.00 0.13 0.01 95 1011.8
20260507043505 50 0 0.0 0.0 0.00 0.14 0.01 95 1011.8
20260507042505 50 0 0.0 0.0 0.00 0.15 0.01 95 1011.7
20260507041505 50 0 0.0 0.0 0.00 0.15 0.01 95 1011.6
20260507041005 50 0 0.0 0.0 0.00 0.16 0.01 95 1011.7
20260507040505 50 0 0.0 0.0 0.00 0.16 0.01 95 1011.5
20260507040005 50 0 0.0 0.0 0.00 0.16 0.01 95 1011.6
20260507035505 50 0 0.0 0.0 0.00 0.16 0.01 95 1011.5
20260507035005 50 0 0.0 0.0 0.00 0.17 0.01 95 1011.5
20260507034506 50 18 0.0 2.0 0.00 0.17 0.01 95 1011.5
20260507033505 50 14 0.0 3.0 0.00 0.17 0.01 95 1011.6
20260507033005 51 0 0.0 0.0 0.00 0.18 0.01 95 1011.5
20260507032506 51 0 0.0 0.0 0.00 0.18 0.01 95 1011.6
20260507032005 51 0 0.0 0.0 0.00 0.18 0.01 95 1011.4
20260507031505 51 0 0.0 0.0 0.00 0.18 0.01 95 1011.4
20260507031005 51 0 0.0 0.0 0.00 0.19 0.01 95 1011.4
20260507030506 51 0 0.0 0.0 0.00 0.19 0.01 95 1011.5
20260507030006 52 0 0.0 0.0 0.00 0.19 0.01 95 1011.6
20260507025505 52 0 0.0 0.0 0.00 0.19 0.01 95 1011.4
20260507025006 52 0 0.0 0.0 0.00 0.19 0.01 95 1011.4
20260507024506 52 0 0.0 0.0 0.00 0.19 0.01 95 1011.4
20260507024006 53 0 0.0 0.0 0.00 0.19 0.01 95 1011.4
20260507023505 53 0 0.0 0.0 0.00 0.20 0.01 95 1011.3
20260507022505 54 0 0.0 0.0 0.00 0.20 0.01 95 1011.6
20260507022005 53 0 0.0 0.0 0.00 0.20 0.01 95 1011.5
20260507021505 53 358 1.0 3.0 0.00 0.20 0.01 95 1011.4
20260507021005 53 11 1.0 3.0 0.00 0.20 0.01 95 1011.6
20260507020505 53 19 0.0 3.0 0.00 0.20 0.01 94 1011.5
20260507020005 54 0 0.0 0.0 0.00 0.20 0.01 94 1011.5
20260507014506 55 108 0.0 2.0 0.00 0.20 0.01 95 1011.5
20260507013505 56 85 1.0 3.0 0.00 0.20 0.01 95 1011.4
20260507013005 56 88 1.0 4.0 0.01 0.20 0.01 95 1011.3
20260507012506 56 89 1.0 4.0 0.01 0.20 0.01 94 1011.3
20260507010506 55 59 1.0 3.0 0.01 0.20 0.01 94 1011.2
20260507010005 55 33 1.0 3.0 0.01 0.20 0.01 94 1011.3
20260507005505 54 28 1.0 3.0 0.01 0.20 0.01 94 1011.2
20260507005006 54 36 0.0 3.0 0.01 0.20 0.01 94 1011.3
20260507004005 55 28 1.0 3.0 0.01 0.20 0.01 94 1011.2
20260507003505 56 35 0.0 3.0 0.01 0.20 0.01 94 1011.1
20260507002506 57 354 1.0 4.0 0.00 0.19 0.00 94 1011.0
20260507002006 56 1 1.0 4.0 0.00 0.19 0.00 94 1011.1
20260507001506 56 11 1.0 2.0 0.00 0.19 0.00 94 1011.2
20260507001005 56 8 2.0 4.0 0.00 0.19 0.00 94 1011.1
20260507000505 56 9 2.0 4.0 0.00 0.19 0.00 94 1011.2
20260507000005 56 15 1.0 3.0 0.00 0.19 0.00 94 1011.2
20260506235505 56 0 0.0 0.0 0.00 0.19 0.00 94 1011.2
20260506234006 57 0 0.0 0.0 0.00 0.19 0.00 94 1011.1
20260506233505 57 0 0.0 0.0 0.00 0.19 0.00 94 1011.1
20260506233005 57 0 0.0 0.0 0.00 0.19 0.00 94 1011.1
20260506232005 58 0 0.0 0.0 0.00 0.19 0.00 94 1011.1
20260506231505 58 0 0.0 0.0 0.00 0.19 0.00 94 1011.3
20260506231005 58 0 0.0 0.0 0.00 0.19 0.00 94 1011.0
20260506230505 58 0 0.0 0.0 0.00 0.19 0.00 94 1010.9
20260506230005 58 0 0.0 0.0 0.00 0.19 0.00 94 1011.0
20260506225505 58 0 0.0 0.0 0.00 0.19 0.00 93 1011.0
20260506225005 58 0 0.0 0.0 0.00 0.19 0.00 93 1011.0
20260506224505 58 0 0.0 0.0 0.00 0.19 0.00 93 1011.0
20260506224006 58 0 0.0 0.0 0.00 0.19 0.00 94 1011.0
20260506223505 58 6 0.0 1.0 0.00 0.19 0.00 93 1011.0
20260506222005 59 67 1.0 3.0 0.00 0.20 0.00 93 1011.1
20260506221505 59 221 0.0 2.0 0.00 0.20 0.00 93 1011.0
20260506221006 59 222 0.0 2.0 0.00 0.20 0.00 93 1011.1
20260506220505 59 211 1.0 3.0 0.00 0.20 0.00 93 1011.0
20260506220008 59 101 3.0 5.0 0.00 0.20 0.00 93 1011.1
20260506215006 59 62 0.0 4.0 0.00 0.20 0.20 93 1011.0
20260506214505 60 0 0.0 0.0 0.00 0.20 0.20 93 1011.1
20260506214005 60 0 0.0 0.0 0.00 0.20 0.20 93 1011.1
20260506213505 60 30 0.0 2.0 0.00 0.20 0.20 93 1011.0
20260506212506 60 41 1.0 3.0 0.00 0.20 0.20 93 1011.0
20260506212005 60 41 2.0 4.0 0.00 0.20 0.20 93 1011.1
20260506210505 61 25 0.0 3.0 0.00 0.20 0.20 93 1011.1
20260506210006 61 88 2.0 9.0 0.00 0.20 0.20 93 1010.9
20260506205505 61 88 4.0 9.0 0.00 0.20 0.20 93 1010.8
20260506205005 61 90 2.0 9.0 0.00 0.20 0.20 93 1010.8
20260506204505 61 219 1.0 3.0 0.00 0.20 0.20 93 1010.7
20260506204006 61 89 2.0 5.0 0.00 0.20 0.20 93 1010.7
20260506203506 61 61 3.0 5.0 0.00 0.20 0.20 93 1010.5
20260506203005 61 29 2.0 5.0 0.00 0.20 0.20 93 1010.5
20260506202505 61 284 2.0 3.0 0.00 0.20 0.20 93 1010.5
20260506201506 61 55 2.0 3.0 0.00 0.20 0.20 93 1010.4
20260506201006 61 72 2.0 4.0 0.00 0.20 0.20 93 1010.3
20260506200505 61 72 3.0 5.0 0.00 0.20 0.20 93 1010.2
20260506200005 61 67 4.0 5.0 0.00 0.20 0.20 93 1010.1
20260506195506 61 56 3.0 5.0 0.00 0.20 0.20 93 1010.1
20260506195005 62 40 2.0 4.0 0.00 0.20 0.20 93 1010.1
20260506194505 62 41 3.0 5.0 0.00 0.20 0.20 93 1010.0
20260506194005 62 47 5.0 9.0 0.00 0.20 0.20 92 1010.1
20260506193506 62 52 6.0 10.0 0.00 0.20 0.20 92 1009.9
20260506193005 62 54 6.0 10.0 0.00 0.20 0.20 92 1009.8
20260506192505 62 55 6.0 9.0 0.00 0.20 0.20 92 1009.7
20260506192005 62 59 7.0 9.0 0.00 0.20 0.20 92 1009.6
20260506191506 62 63 7.0 9.0 0.00 0.20 0.20 92 1009.6
20260506191005 62 62 7.0 11.0 0.00 0.20 0.20 92 1009.5
20260506190505 62 57 7.0 11.0 0.00 0.20 0.20 91 1009.4
20260506190006 61 55 5.0 11.0 0.00 0.20 0.20 90 1009.4
20260506185506 61 54 5.0 8.0 0.00 0.20 0.20 89 1009.4
20260506185006 61 48 5.0 8.0 0.00 0.20 0.20 88 1009.3
20260506184505 61 47 5.0 8.0 0.00 0.20 0.20 87 1009.2
20260506184005 61 53 5.0 8.0 0.00 0.20 0.20 87 1009.1
20260506183505 62 55 5.0 9.0 0.00 0.20 0.20 87 1009.0
20260506183006 62 54 7.0 10.0 0.00 0.20 0.20 86 1009.0
20260506182506 62 54 8.0 10.0 0.00 0.20 0.20 86 1009.0
20260506182006 63 57 8.0 10.0 0.00 0.20 0.20 86 1008.8
20260506181505 63 57 6.0 9.0 0.00 0.20 0.20 86 1008.7
20260506181006 63 60 6.0 10.0 0.00 0.20 0.20 86 1008.8
20260506180506 64 64 7.0 10.0 0.00 0.20 0.20 86 1008.7
20260506175505 64 60 5.0 11.0 0.00 0.20 0.20 84 1008.6
20260506175005 65 60 4.0 8.0 0.00 0.20 0.20 84 1008.5
20260506174006 65 70 7.0 11.0 0.00 0.20 0.20 81 1008.4
20260506173506 65 72 7.0 11.0 0.00 0.20 0.20 83 1008.5
20260506173006 65 66 6.0 11.0 0.00 0.20 0.20 83 1008.5
20260506172505 65 61 7.0 10.0 0.00 0.20 0.20 85 1008.5
20260506171506 65 66 7.0 10.0 0.00 0.20 0.20 86 1008.3
20260506171006 65 72 9.0 13.0 0.00 0.20 0.20 86 1008.3
20260506170506 65 72 10.0 13.0 0.00 0.20 0.20 86 1008.2
20260506170005 65 72 10.0 14.0 0.00 0.20 0.20 87 1008.1
20260506165005 65 55 10.0 15.0 0.00 0.20 0.20 86 1008.2
20260506164506 65 51 7.0 13.0 0.00 0.20 0.20 84 1008.2
20260506163506 65 339 4.0 10.0 0.01 0.20 0.20 80 1008.3
20260506163006 65 344 3.0 7.0 0.01 0.20 0.20 82 1008.3
20260506162505 65 56 6.0 15.0 0.01 0.20 0.20 83 1008.3
20260506162005 65 80 8.0 15.0 0.01 0.20 0.20 84 1008.2
20260506161506 66 76 7.0 14.0 0.01 0.20 0.20 80 1008.3
20260506161006 65 54 6.0 9.0 0.01 0.20 0.20 80 1008.0
20260506160505 64 42 7.0 10.0 0.01 0.20 0.20 81 1007.9
20260506160005 64 39 8.0 13.0 0.01 0.20 0.20 81 1008.1
20260506155506 64 34 8.0 13.0 0.01 0.20 0.20 81 1008.1
20260506154005 66 5 5.0 14.0 0.00 0.19 0.19 80 1008.5
20260506153506 68 58 7.0 14.0 0.00 0.19 0.19 82 1008.2
20260506152506 69 71 13.0 20.0 0.00 0.19 0.19 84 1007.5
20260506152006 69 66 11.0 16.0 0.00 0.19 0.19 83 1007.5
20260506150005 71 91 8.0 11.0 0.00 0.19 0.19 78 1007.7
20260506145505 71 101 5.0 11.0 0.00 0.19 0.19 71 1007.8
20260506145006 71 110 2.0 8.0 0.00 0.19 0.19 75 1007.8
20260506144505 71 107 4.0 11.0 0.00 0.19 0.19 73 1007.9
20260506144006 71 107 5.0 11.0 0.00 0.19 0.19 75 1008.1
20260506143505 71 114 4.0 8.0 0.00 0.19 0.19 74 1008.2
20260506142505 70 105 8.0 15.0 0.00 0.19 0.19 78 1008.1
20260506142005 69 91 9.0 15.0 0.00 0.19 0.19 81 1008.2
20260506141506 69 90 9.0 13.0 0.00 0.19 0.19 83 1008.2
20260506140505 70 89 8.0 13.0 0.00 0.19 0.19 85 1008.4
20260506140005 69 90 9.0 13.0 0.00 0.19 0.19 83 1008.6
20260506135506 69 99 8.0 12.0 0.00 0.19 0.19 83 1008.5
20260506135006 69 100 9.0 14.0 0.00 0.19 0.19 85 1008.7
20260506134506 69 95 10.0 14.0 0.00 0.19 0.19 85 1008.7
20260506134005 68 92 10.0 14.0 0.00 0.19 0.19 85 1008.7
20260506133505 68 99 10.0 14.0 0.00 0.19 0.19 85 1008.8
20260506133005 69 100 10.0 15.0 0.00 0.19 0.19 86 1008.8
20260506132505 69 100 11.0 15.0 0.00 0.19 0.19 87 1008.9
20260506132005 69 105 11.0 17.0 0.00 0.19 0.19 87 1008.9
20260506131505 69 103 10.0 17.0 0.00 0.19 0.19 87 1009.0
20260506131005 69 105 10.0 15.0 0.00 0.19 0.19 86 1008.9
20260506130005 68 104 10.0 14.0 0.00 0.19 0.19 85 1008.9
20260506125506 68 103 9.0 14.0 0.00 0.19 0.19 85 1009.0
20260506125005 68 101 10.0 17.0 0.00 0.19 0.19 88 1009.1
20260506124005 67 99 11.0 15.0 0.00 0.19 0.19 88 1009.0
20260506123505 67 92 12.0 17.0 0.00 0.19 0.19 89 1008.9
20260506123005 66 96 14.0 20.0 0.02 0.19 0.19 90 1009.0
20260506122505 66 101 15.0 20.0 0.06 0.19 0.19 91 1009.0
20260506122005 66 99 16.0 21.0 0.07 0.19 0.19 92 1009.0
20260506121505 65 98 16.0 21.0 0.09 0.19 0.19 91 1008.9
20260506121005 66 98 16.0 20.0 0.10 0.19 0.19 93 1008.9
20260506120505 65 101 15.0 20.0 0.10 0.19 0.19 93 1008.9
20260506120005 64 101 15.0 19.0 0.10 0.19 0.19 93 1008.9
20260506115506 64 94 16.0 21.0 0.10 0.19 0.19 93 1008.8
20260506115006 63 90 18.0 25.0 0.10 0.19 0.19 93 1008.9
20260506114505 63 90 21.0 29.0 0.10 0.19 0.19 93 1008.7
20260506114005 63 88 22.0 29.0 0.10 0.19 0.19 93 1008.7
20260506113005 63 104 14.0 25.0 0.07 0.16 0.16 92 1009.1
20260506112006 63 87 11.0 16.0 0.03 0.12 0.12 91 1009.7
20260506111006 63 80 6.0 10.0 0.00 0.09 0.09 91 1010.0
20260506110005 63 87 9.0 13.0 0.00 0.09 0.09 91 1010.0
20260506105505 63 89 11.0 15.0 0.00 0.09 0.09 91 1010.0
20260506105005 63 88 12.0 16.0 0.00 0.09 0.09 90 1010.0
20260506104505 63 91 13.0 18.0 0.00 0.09 0.09 90 1009.9
20260506104005 63 90 13.0 18.0 0.00 0.09 0.09 90 1009.8
20260506103505 63 90 12.0 16.0 0.00 0.09 0.09 89 1009.8
20260506103006 63 93 13.0 16.0 0.00 0.09 0.09 89 1009.8
20260506102505 63 96 13.0 17.0 0.00 0.09 0.09 88 1010.0
20260506102005 63 102 13.0 18.0 0.00 0.09 0.09 88 1010.1
20260506101505 64 102 13.0 18.0 0.00 0.09 0.09 88 1010.2
20260506100505 64 99 13.0 17.0 0.00 0.09 0.09 88 1010.1
20260506100005 63 93 13.0 17.0 0.00 0.09 0.09 88 1010.0
20260506095505 63 91 13.0 17.0 0.00 0.09 0.09 89 1010.0
20260506095005 63 97 12.0 17.0 0.00 0.09 0.09 89 1010.1
20260506094505 63 95 13.0 17.0 0.00 0.09 0.09 89 1010.1
20260506094005 63 90 13.0 17.0 0.00 0.09 0.09 90 1010.0
20260506093506 63 94 13.0 19.0 0.00 0.09 0.09 90 1010.1
20260506093005 63 98 13.0 19.0 0.00 0.09 0.09 90 1010.1
20260506092005 63 87 13.0 16.0 0.00 0.09 0.09 90 1010.0
20260506091506 62 83 13.0 16.0 0.00 0.09 0.09 90 1010.0
20260506091006 63 81 13.0 17.0 0.00 0.09 0.09 90 1010.0
20260506090505 63 81 12.0 17.0 0.00 0.09 0.09 90 1009.9
20260506090005 63 83 11.0 15.0 0.00 0.09 0.09 91 1009.9
20260506085006 62 87 11.0 17.0 0.00 0.11 0.09 91 1010.0
20260506084506 62 84 11.0 14.0 0.00 0.12 0.09 91 1010.0
20260506084006 62 83 11.0 14.0 0.00 0.13 0.09 91 1010.0
20260506083006 62 81 11.0 14.0 0.00 0.15 0.09 92 1009.9
20260506082505 61 88 10.0 14.0 0.00 0.16 0.09 92 1009.7
20260506082005 61 92 9.0 13.0 0.00 0.17 0.09 92 1009.9
20260506081005 61 90 11.0 13.0 0.00 0.18 0.09 92 1010.1
20260506073505 61 98 12.0 15.0 0.00 0.27 0.09 92 1009.8
20260506073006 61 99 12.0 16.0 0.00 0.28 0.09 93 1009.8
20260506072505 61 95 12.0 16.0 0.00 0.29 0.09 93 1009.8
20260506071506 61 85 11.0 16.0 0.00 0.31 0.09 94 1009.8
20260506071006 61 81 10.0 16.0 0.00 0.31 0.09 94 1009.8
20260506062505 59 92 9.0 12.0 0.00 0.33 0.09 95 1010.1
20260506062005 60 91 9.0 12.0 0.00 0.33 0.09 95 1010.1
20260506061505 59 90 8.0 11.0 0.01 0.33 0.09 95 1010.1
20260506060505 59 90 7.0 9.0 0.01 0.33 0.09 95 1010.3
20260506050505 58 97 9.0 13.0 0.03 0.32 0.08 95 1010.6
20260506045006 58 92 7.0 10.0 0.03 0.31 0.07 95 1010.8